Content
SEND FEEDBACK

Daily
Averages
Monthly
Summary
Canada

VANCOUVER - UNIVERSITY, BRITISH COLUMBIA


Home > North America > Canada > British Columbia
Elevation: 249 feet     Latitude: 49 15N     Longitude: 123 15W

WEATHER
 
SELECT A DAY
Number of Records: 194,771;   Date Range: 1/1/95 - 8/27/14
 
SHARE

PRINT THIS DATA

[ ← Previous Day ]
WEATHER ALMANAC - FEBRUARY 28, 2013
[ Next Day → ]
[ °C ]   °F
Weather ElementAverageHighLow
Temperature41.2 °F44.6 °F (10:00 pm)35.6 °F (1:00 am)
Dewpoint21.2 °F39.2 °F (6:00 pm) (7:00 pm)
Humidity80.9 %87 % (1:00 am)70 % (4:00 am)
Wind Speed9.1 mph13.8 mph (9:29 pm)
Wind Gust17.3 mph (10:36 pm)
Weather ElementAverage
Visibility9.2 mi
Wind DirectionE (86 °)

Weather ElementTotal
Precipitation---
Heating Degree Days24.9 (Base 65)
Averaged from 45 records on February 28, 2013
WEATHER CONDITIONS BREAKOUT
WIND DIRECTION BREAKOUT
WEATHER BY HOUR - FEBRUARY 28, 2013
[ °C ]   °F
Local TimeTemperatureDewpointHumidityBarometerVisibilityWind DirectionWind SpeedGust SpeedPrecipitationEventsConditions
1:00 AM35.6 °F32.0 °F87 %30.29 in15.0 miNE (50°)5.8 mphOvercast
2:00 AM37.4 °F32.0 °F81 %30.30 in15.0 miENE (70°)5.8 mphOvercast
3:00 AM37.4 °F32.0 °F81 %30.27 in15.0 miEast (80°)6.9 mphOvercast
4:00 AM38.0 °F32.0 °F70 %30.26 in15.0 miENE (60°)6.9 mphOvercast
4:00 AM37.4 °F32.0 °F81 %30.26 in15.0 miENE (70°)9.2 mphOvercast
5:00 AM39.2 °F32.0 °F75 %30.24 in15.0 miSSE (160°)2.3 mphOvercast
6:00 AM39.2 °F32.0 °F75 %30.24 in15.0 miEast (100°)4.6 mphOvercast
6:35 AM39.2 °F0.0 °F15.0 miESE (120°)4.6 mphRainLight Rain
7:00 AM39.2 °F32.0 °F75 %30.23 in15.0 miEast (100°)5.8 mphRainLight Rain
8:00 AM39.2 °F32.0 °F75 %30.22 in15.0 miEast (100°)5.8 mphRainLight Rain
9:00 AM39.2 °F33.8 °F81 %30.22 in12.0 miEast (100°)6.9 mphRainLight Rain
10:00 AM39.2 °F33.8 °F81 %30.22 in8.0 miEast (90°)5.8 mphRainLight Rain
10:00 AM40.0 °F34.0 °F72 %30.22 in7.0 miEast (90°)6.9 mphRainLight Rain
11:00 AM41.0 °F33.8 °F76 %30.22 in8.0 miEast (80°)6.9 mphRainLight Rain
12:00 PM41.0 °F35.6 °F81 %30.22 in8.0 miENE (70°)8.1 mphRainLight Rain
1:00 PM41.0 °F35.6 °F81 %30.23 in10.0 miEast (100°)6.9 mphRainLight Rain
2:00 PM41.0 °F37.4 °F87 %30.24 in15.0 miEast (90°)9.2 mphRainLight Rain
3:00 PM41.0 °F37.4 °F87 %30.24 in15.0 miEast (100°)10.4 mphRainLight Rain
3:40 PM41.0 °F0.0 °F12.0 miEast (90°)11.5 mphRainLight Rain
3:52 PM41.0 °F0.0 °F12.0 miEast (90°)11.5 mphRainLight Rain
3:55 PM41.0 °F0.0 °F6.0 miEast (90°)9.2 mphRainLight Rain
4:00 PM41.0 °F37.4 °F87 %30.24 in6.0 miEast (80°)6.9 mphRainLight Rain
4:00 PM41.0 °F36.0 °F78 %30.24 in6.0 miEast (90°)8.1 mphRainLight Rain
4:14 PM41.0 °F0.0 °F4.0 miEast (90°)10.4 mphRainLight Rain
4:34 PM42.8 °F0.0 °F6.0 miEast (80°)11.5 mphLight Drizzle
4:43 PM42.8 °F0.0 °F8.0 miEast (80°)12.7 mphLight Drizzle
5:00 PM42.8 °F37.4 °F81 %30.22 in8.0 miEast (80°)10.4 mphLight Drizzle
5:04 PM42.8 °F0.0 °F6.0 miENE (70°)10.4 mphLight Drizzle
5:40 PM42.8 °F0.0 °F7.0 miEast (80°)12.7 mphLight Drizzle
5:51 PM42.8 °F0.0 °F5.0 miENE (70°)12.7 mphLight Drizzle
6:00 PM42.8 °F39.2 °F87 %30.22 in8.0 miEast (90°)6.9 mphLight Drizzle
6:20 PM42.8 °F0.0 °F4.0 miENE (70°)6.9 mphRainLight Rain
6:29 PM42.8 °F0.0 °F7.0 miNE (50°)10.4 mphRainLight Rain
6:46 PM42.8 °F0.0 °F3.0 miNE (50°)10.4 mphRainLight Rain
7:00 PM42.8 °F39.2 °F87 %30.23 in3.0 miENE (60°)12.7 mphRainLight Rain
8:00 PM42.8 °F39.2 °F87 %30.23 in3.0 miEast (90°)9.2 mphRainLight Rain
8:42 PM42.8 °F0.0 °F2.0 miEast (100°)9.2 mphRainLight Rain
9:00 PM42.8 °F39.2 °F87 %30.22 in2.5 miEast (90°)11.5 mphRainLight Rain
9:09 PM42.8 °F0.0 °F6.0 miEast (90°)11.5 mphRainLight Rain
9:29 PM42.8 °F0.0 °F10.0 miEast (90°)13.8 mphRainLight Rain
9:53 PM42.8 °F0.0 °F10.0 miEast (90°)12.7 mphOvercast
10:00 PM44.0 °F39.0 °F77 %30.23 in10.0 miEast (90°)11.5 mphRainLight Rain
10:00 PM44.6 °F39.2 °F81 %30.23 in10.0 miEast (90°)11.5 mphOvercast
10:36 PM44.6 °F0.0 °F8.0 miEast (100°)11.5 mph17.3 mphRainLight Rain
11:00 PM42.8 °F39.2 °F87 %30.23 in8.0 miEast (100°)13.8 mphRainLight Rain
Hourly data recorded from CYVR, located miles away from Vancouver - University, British Columbia







STORIES FROM OUR PARTNERS